Theta_e
273 268 268 271 271 272 270 271 273 273 267 274 273 268 267 266 267 268 268 268 269 270 271 273 274 274 275 275 276 277 276 276 275 276 277 277 277 277 277 277 277 277 276 275
271 265 265 269 272 271 271 270 267 268 268 275 268 265 266 266 266 266 267 268 269 270 271 272 274 274 275 275 276 277 276 276 277 276 277 277 277 276 276 276 276 277 276 276
277 269 270 273 271 269 271 270 273 273 280 270 272 272 270 269 267 266 267 268 269 270 271 273 273 275 274 275 276 276 275 275 276 276 276 276 276 276 276 276 276 276 276 276
275 272 276 280 266 270 274 273 271 271 271 274 275 272 270 269 270 268 268 268 269 270 272 274 275 275 276 276 276 276 275 275 275 275 274 275 275 275 276 276 276 276 276 276
273 273 280 276 271 272 275 284 275 275 272 271 268 268 274 271 269 270 268 268 268 268 269 273 273 274 275 274 275 274 274 274 274 275 274 274 274 274 275 275 275 275 276 276
272 275 276 285 276 274 275 283 274 277 273 270 273 278 280 270 269 267 266 266 268 269 271 272 273 275 274 273 273 273 273 273 274 274 274 273 274 274 275 275 275 275 275 275
271 274 279 281 277 277 279 287 274 278 276 273 277 282 276 271 269 270 269 268 269 269 270 271 271 273 272 272 272 273 273 273 273 273 273 273 273 274 274 273 273 273 273 274
272 271 276 277 276 280 287 274 276 279 276 276 276 268 268 271 270 269 268 268 271 270 271 271 272 273 272 272 272 273 273 272 272 272 273 273 272 272 272 272 272 271 272 272
277 281 282 279 284 281 276 280 275 279 277 278 273 271 271 271 271 271 271 271 271 271 271 271 272 272 271 272 271 271 270 269 270 271 271 271 272 271 271 272 272 272 272 273
278 283 281 279 282 278 276 280 279 281 279 279 276 275 272 272 272 271 271 270 271 270 269 270 270 271 272 271 270 268 269 269 269 270 270 271 272 272 273 273 272 272 272 272
279 283 282 281 281 284 280 277 278 279 280 279 279 275 274 272 272 272 271 270 270 270 269 270 270 270 270 270 269 269 269 269 271 271 271 271 272 273 272 271 272 272 272 272
283 287 286 285 284 283 282 279 279 278 277 279 278 275 274 273 273 272 271 270 269 269 270 270 269 269 269 268 268 269 270 270 271 272 271 272 272 272 273 274 273 274 274 272
286 284 284 283 282 282 282 283 280 280 280 278 277 276 273 273 273 272 272 270 270 269 269 270 269 269 268 267 267 267 272 272 271 270 271 271 271 272 272 273 275 277 277 277
283 283 283 281 283 281 281 281 279 278 279 279 278 274 273 273 272 271 270 271 271 270 269 268 267 267 268 267 267 267 269 268 272 272 272 272 271 271 271 271 271 272 274 275
281 283 283 278 277 276 276 275 275 275 276 275 275 273 272 270 270 270 271 268 269 267 267 266 266 267 267 266 266 267 268 270 270 271 271 270 271 270 270 269 269 269 270 269
276 276 275 277 278 275 275 274 276 277 275 276 273 273 273 273 273 270 267 266 267 267 267 266 267 269 265 265 266 267 267 267 268 269 269 268 268 268 268 268 268 267 268 269
278 276 272 274 275 275 274 277 278 279 276 275 275 274 272 271 269 268 267 266 268 271 270 268 269 269 265 265 267 269 269 269 266 267 268 268 268 268 268 268 268 268 268 270
278 275 275 278 278 277 274 274 274 274 275 277 273 271 270 269 272 271 270 267 267 267 268 270 270 267 266 266 266 269 269 269 268 267 268 267 267 267 267 267 267 267 268 269
268 271 271 272 272 271 271 273 273 274 273 272 271 271 272 272 274 274 271 268 267 267 271 269 270 269 268 267 267 269 269 269 269 268 268 268 267 266 266 266 267 267 268 268
266 264 265 266 265 266 270 270 268 271 272 272 272 272 272 272 270 269 269 270 272 273 274 271 269 271 269 268 269 268 269 269 269 268 268 267 267 267 267 266 267 267 267 268
265 264 263 264 265 264 264 266 268 270 270 271 272 273 273 273 270 270 269 271 275 271 271 269 269 271 271 270 268 268 268 268 268 268 268 268 267 267 267 268 268 267 267 268
263 263 264 263 264 265 264 264 268 268 269 269 268 269 270 271 269 270 272 273 276 269 271 272 271 270 271 269 268 269 269 269 269 269 268 269 268 268 268 268 268 268 268 268
265 264 264 265 265 266 265 266 266 269 268 268 268 270 272 274 273 271 271 274 273 270 272 272 270 268 269 269 269 269 269 269 268 268 269 269 268 269 269 269 269 268 268 268
265 265 265 266 266 269 269 267 268 267 267 267 266 264 270 272 272 272 273 270 270 271 272 272 271 272 269 270 269 268 269 269 269 269 269 268 269 269 269 268 268 269 269 268
263 264 265 265 266 266 266 266 267 267 267 267 267 268 268 270 272 272 272 272 272 272 273 272 272 272 271 270 269 268 268 268 268 268 268 268 268 268 268 268 268 268 268 269
264 263 263 263 263 265 266 267 267 267 268 267 266 266 267 268 269 270 270 269 270 270 271 271 271 271 271 270 269 268 268 268 268 267 267 267 267 267 267 267 267 268 268 268
264 264 265 265 264 264 264 265 266 265 265 266 265 266 266 267 267 268 268 268 268 268 269 269 269 269 269 269 269 268 267 267 266 266 266 266 266 266 267 267 268 268 268 268
Wind_Speed
5 2 3 4 5 11 12 4 7 3 6 14 7 5 4 5 6 5 5 6 7 8 8 8 7 8 8 9 10 9 9 11 11 11 11 12 13 12 15 15 14 13 14 14
4 1 3 7 9 11 14 5 13 11 14 5 1 3 4 3 3 3 3 4 5 6 7 8 8 8 9 10 11 9 10 10 10 11 11 12 13 11 15 15 12 13 13 14
4 1 5 7 7 13 6 7 6 5 1 4 4 3 3 3 3 1 2 3 3 4 4 5 6 7 8 9 8 9 10 10 10 10 12 12 12 14 15 13 12 13 13 11
5 3 3 1 2 3 6 6 15 3 5 6 3 2 4 5 5 6 5 5 3 0 3 4 4 5 6 7 7 8 8 8 8 9 9 10 11 12 11 10 10 10 10 11
3 3 7 3 6 8 8 5 14 13 5 4 3 3 3 6 6 4 5 2 1 2 1 3 4 4 7 7 6 7 6 6 7 7 8 9 10 10 9 10 10 9 9 10
2 3 4 2 3 5 2 4 10 13 11 10 8 5 4 11 8 9 7 5 4 3 2 3 3 4 5 5 6 5 5 6 6 6 7 9 9 8 8 9 9 8 9 8
4 5 10 2 6 6 2 3 7 13 12 15 9 1 6 11 7 8 8 8 5 3 2 3 3 4 5 5 5 4 4 5 6 6 6 6 7 7 7 8 8 7 7 7
4 4 7 9 8 7 2 1 4 10 11 12 4 6 7 10 10 10 10 8 7 6 5 4 4 4 6 6 4 4 5 5 5 4 4 4 7 5 6 6 6 5 4 4
11 7 2 14 1 3 2 4 8 11 11 14 12 10 14 13 14 13 12 10 9 8 7 6 6 6 7 6 5 5 4 4 4 4 4 3 5 4 4 3 3 3 2 2
2 3 12 11 12 5 6 4 6 11 14 17 13 15 17 13 13 13 12 10 9 9 8 9 8 8 7 8 6 5 5 5 4 4 4 3 3 3 3 3 3 3 2 2
8 11 6 13 14 10 12 6 6 10 13 18 12 15 16 13 12 11 11 10 10 11 10 10 9 9 7 8 8 7 6 5 6 5 5 4 2 2 2 2 3 3 3 3
8 7 3 4 3 11 14 16 13 14 12 12 12 13 13 11 11 12 13 12 11 11 10 9 9 8 8 8 9 9 8 7 6 5 4 3 3 3 6 7 9 10 8 8
7 2 4 3 3 4 14 14 14 16 15 18 14 10 13 9 11 11 10 12 14 14 12 10 10 10 9 9 9 9 9 8 7 7 6 6 6 5 5 5 9 11 13 13
7 3 6 5 5 5 5 6 8 4 8 13 14 9 10 10 6 11 13 12 11 11 11 10 10 12 10 10 10 8 8 5 7 5 5 6 6 5 4 5 6 7 11 14
9 13 4 3 2 3 3 6 7 10 10 7 10 14 13 12 11 12 8 8 9 9 10 10 10 13 9 10 11 10 9 7 7 6 6 5 5 5 6 6 8 8 7 8
1 1 3 7 5 6 6 7 9 12 10 11 11 13 16 14 11 10 10 10 12 14 13 12 14 12 10 11 11 9 10 10 9 8 7 7 7 7 8 9 9 9 8 9
4 3 4 7 11 9 12 8 11 11 10 13 16 12 10 10 6 8 10 11 13 10 10 13 15 8 10 11 13 9 8 8 11 7 7 7 8 9 8 8 9 9 10 9
2 2 2 3 5 9 8 9 8 7 11 12 8 9 10 13 18 15 13 11 10 10 11 12 10 9 11 12 12 10 8 8 7 9 7 8 8 7 8 9 10 11 10 10
1 4 4 4 3 3 4 5 8 8 5 7 10 13 13 12 10 5 8 11 12 12 15 12 13 13 13 13 13 9 9 9 9 8 8 9 8 9 9 10 11 11 10 10
3 3 3 4 4 5 7 5 4 6 6 8 6 7 9 8 6 7 8 12 13 7 4 9 13 13 12 11 15 9 9 10 10 9 8 9 10 10 10 14 13 11 10 10
5 3 4 5 5 4 5 4 4 5 5 6 9 10 10 7 8 8 8 9 8 7 7 9 9 8 8 10 11 10 10 10 10 10 10 10 10 11 11 11 11 11 11 10
3 3 4 4 4 4 3 4 4 2 4 5 3 3 5 5 5 6 7 7 0 7 6 7 6 8 7 12 8 10 10 11 10 9 10 10 10 10 10 10 11 11 10 10
3 3 3 2 1 1 2 3 1 3 4 4 5 5 5 4 5 5 5 6 7 6 5 6 7 10 13 9 8 9 9 10 10 10 9 9 9 10 10 10 9 9 9 9
2 3 2 2 4 4 8 5 5 5 5 4 4 1 1 1 2 3 3 1 2 5 5 5 7 10 11 7 7 8 7 7 8 8 8 11 9 8 9 9 9 8 8 9
4 4 5 7 8 6 6 5 5 6 7 8 7 6 5 4 2 3 2 1 1 2 2 3 5 6 6 5 5 6 6 6 6 7 7 8 8 8 8 7 7 8 8 7
7 6 6 8 6 5 4 4 5 4 4 6 6 5 5 4 4 4 4 5 5 4 3 2 0 2 3 3 4 4 4 5 6 6 7 6 6 6 6 7 7 7 7 7
6 6 5 6 6 6 6 6 6 6 5 5 6 6 6 6 7 6 6 6 6 5 4 4 4 4 3 2 2 2 2 3 4 4 5 5 5 6 6 6 6 5 6 5
Wind_Direction
272 284 251 265 206 192 201 190 236 19 260 306 336 313 312 314 311 318 346 8 8 358 356 9 23 31 34 39 41 35 57 64 62 64 65 69 69 75 79 72 70 75 77 76
267 132 223 269 227 214 228 233 264 287 283 213 113 237 243 236 293 323 352 15 15 5 15 16 27 40 46 44 46 42 52 57 65 71 71 71 76 79 76 72 66 68 70 72
268 279 275 273 216 187 179 199 189 206 183 174 178 165 220 178 190 232 299 9 7 25 33 45 46 61 59 54 49 58 56 62 72 77 82 83 85 75 72 79 80 75 70 79
288 297 269 337 148 211 231 218 210 265 222 212 140 157 245 212 185 192 203 189 182 73 57 42 48 59 78 80 78 79 72 73 74 76 81 85 84 78 83 80 73 77 84 86
283 277 304 179 197 183 186 279 195 193 184 207 170 221 210 204 204 190 207 205 187 282 320 53 62 75 87 82 83 88 88 87 85 89 88 86 84 82 89 91 86 85 90 94
181 256 253 243 187 196 211 275 189 173 174 169 175 176 173 179 181 183 195 212 200 185 164 133 100 104 108 106 109 102 103 89 83 85 89 92 95 99 100 96 93 88 82 72
207 262 279 151 148 166 226 248 178 176 166 165 187 237 125 147 169 172 174 182 183 192 186 146 137 138 129 131 123 124 114 101 96 97 107 112 105 88 90 88 89 83 76 64
178 225 278 148 119 196 208 68 185 167 172 180 160 158 169 168 165 175 176 177 183 179 188 184 179 168 156 161 149 142 125 114 106 92 86 82 82 79 79 89 86 83 87 82
209 220 46 197 222 211 197 148 195 189 172 174 165 187 176 182 181 185 186 182 177 184 181 186 190 197 185 176 169 154 140 131 122 103 99 108 124 128 114 116 115 91 79 85
300 223 233 217 224 221 198 232 196 207 177 179 181 180 184 182 184 185 185 188 180 185 197 201 198 201 205 170 173 163 165 165 157 153 150 162 167 169 155 156 144 158 185 188
260 274 263 243 228 211 206 209 205 185 188 194 182 188 185 186 187 187 183 184 184 191 201 209 194 202 191 176 167 180 187 184 188 193 199 178 177 177 183 200 207 202 212 216
229 223 222 256 202 189 193 200 199 179 179 200 194 188 185 194 188 184 184 179 187 196 202 206 196 198 190 180 177 181 190 193 192 186 186 194 200 206 226 228 216 229 227 223
246 203 237 285 248 185 211 195 187 194 190 182 193 185 190 191 194 186 185 186 195 197 200 197 196 202 195 188 188 197 203 192 187 194 192 192 199 213 226 212 248 246 239 242
219 125 265 199 247 181 175 165 154 183 205 187 178 172 182 197 173 194 200 197 192 193 199 198 198 211 193 186 195 210 218 225 211 203 204 205 213 219 227 242 248 243 239 247
221 213 224 127 103 132 125 133 168 190 189 189 181 179 178 186 199 204 189 170 181 192 203 196 205 220 180 182 193 205 211 216 210 214 217 225 224 229 236 240 245 255 264 254
133 224 176 228 206 178 170 184 196 205 190 191 196 200 198 201 201 187 171 165 172 209 209 205 217 213 176 181 196 206 214 219 207 208 207 211 219 227 231 236 244 246 248 248
151 259 200 243 220 202 210 204 207 205 195 198 202 192 184 188 175 189 194 188 203 213 200 206 224 179 178 189 197 210 212 213 212 218 223 217 220 224 229 235 240 245 249 243
241 47 128 203 205 207 215 217 214 199 205 210 169 166 181 186 210 208 202 182 199 222 215 212 201 176 189 194 200 209 209 214 207 220 223 224 227 229 230 235 240 247 251 249
252 254 263 259 244 245 261 236 212 215 196 168 166 197 203 214 218 201 158 184 203 219 236 205 196 192 199 199 195 205 211 214 215 219 224 231 229 231 234 236 241 245 251 253
310 289 267 258 237 217 237 223 253 219 192 177 183 182 207 213 166 164 174 214 220 228 168 175 191 204 205 198 196 204 212 217 221 222 220 225 234 238 237 240 244 245 243 244
292 280 273 268 269 263 248 244 219 217 188 176 191 204 207 189 176 172 193 230 222 188 183 175 189 205 198 192 192 206 212 217 221 226 227 228 236 238 241 243 245 243 247 248
304 311 300 278 269 284 262 238 222 195 170 178 188 150 151 187 181 205 235 245 200 183 196 206 204 200 201 189 199 209 212 218 223 225 231 233 236 239 242 241 243 247 248 248
313 282 273 262 156 19 78 84 165 152 148 171 182 190 197 213 194 192 233 218 216 197 195 205 199 189 193 191 199 210 217 217 220 225 232 233 233 239 244 246 247 248 249 250
35 27 29 74 128 98 73 39 48 52 63 80 72 62 157 189 271 244 282 127 199 204 218 218 205 203 191 203 208 214 223 227 226 228 231 234 240 242 244 246 249 251 255 257
48 40 36 54 65 62 65 50 62 56 62 61 48 46 48 36 5 18 41 29 324 227 241 195 217 218 198 210 213 218 227 232 235 237 238 239 243 244 251 254 254 258 259 260
59 58 56 51 58 57 62 67 80 51 68 74 54 33 43 41 47 47 49 40 51 46 26 30 71 203 211 217 227 235 239 247 249 251 254 253 255 255 257 259 261 263 262 264
57 39 48 58 39 43 47 48 67 55 36 48 67 31 34 41 44 46 42 43 41 36 30 30 27 22 15 355 326 306 283 273 263 269 268 270 267 265 264 263 266 266 270 273